Flag for South Korea Weather past 2 weeks in Daegu, South Korea

Now
68 °F

Rain. Fog.


Feels Like: 68 °F
Forecast: 67 / 82 °F
Wind: 3 mph from Southeast

Location: Taegu Ab

Current Time: Sep 3, 2014 at 2:38:54 AM

Latest Report: Sep 3, 2014 at 12:00 AM


Visibility: 3 mi

Pressure: 29.81 "Hg

Humidity: 88%

Dew point: 64 °F

Location of DaeguLocation

Historic Weather in Daegu — Graph

°F

Daegu temperature yesterday

Maximum temperature yesterday: 79 °F (at 3:00 PM)
Minimum temperature yesterday: 64 °F (at 6:00 AM)
Average temperature yesterday: 72 °F

Past Weeks' High & Low Weather Summary

 TemperatureHumidityPressure
High90 °F (Aug 26, 4:00 PM)100% (Aug 20, 4:00 AM)30.07 "Hg (Aug 20, 4:00 AM)
Low61 °F (Aug 31, 5:00 AM)46% (Aug 23, 1:00 PM)29.65 "Hg (Aug 21, 3:00 PM)
Average74 °F78%29.87 "Hg
* Reported Midnight between Aug 18 and Aug 19 — Midnight between Sep 2 and Sep 3, Daegu, Weather by CustomWeather, © 2014

Note: Actual official high and low records may vary slightly from our data, if they occured in-between our weather recording intervals... More about our weather records

Advertising

Daegu weather history for previous 24 hours

 ConditionsComfort  
Time TempWeatherWind HumidityBarometerVisibility
12:00 AM
Sep 3
68 °FRain. Fog.3 mph88%29.81 "Hg3 mi
10:00 PM
Sep 2
70 °FLight rain. Mostly cloudy.12 mph83%29.83 "Hg5 mi
9:00 PM70 °FLight rain. Mostly cloudy.9 mph88%29.83 "Hg5 mi
8:00 PM72 °FLight rain. Mostly cloudy.9 mph78%29.86 "HgN/A
7:00 PM73 °FLight rain. Overcast.8 mph69%29.86 "HgN/A
6:00 PM75 °FMostly cloudy.13 mph69%29.86 "HgN/A
5:00 PM77 °FCloudy.9 mph65%29.86 "HgN/A
4:00 PM79 °FCloudy.10 mph61%29.86 "HgN/A
3:00 PM79 °FMore clouds than sun.9 mph61%29.86 "HgN/A
2:00 PM77 °FCloudy.8 mph65%29.89 "HgN/A
1:00 PM77 °FPartly sunny.12 mph65%29.92 "HgN/A
12:00 PM77 °FBroken clouds.10 mph69%29.92 "HgN/A
11:00 AM75 °FBroken clouds.7 mph74%29.95 "HgN/A
10:00 AM72 °FBroken clouds.3 mph83%29.95 "HgN/A
9:00 AM70 °FPartly sunny.2 mph83%29.95 "HgN/A
8:00 AM66 °FPartly sunny.1 mph94%29.95 "HgN/A
7:00 AM64 °FBroken clouds.2 mph94%29.98 "HgN/A
6:00 AM64 °FPartly sunny.3 mph94%29.95 "HgN/A
5:00 AM66 °FFog.1 mph88%29.95 "Hg6 mi
4:00 AM66 °FFog.7 mph88%29.95 "Hg6 mi
3:00 AM68 °FPartly cloudy.2 mph83%29.95 "HgN/A
2:00 AM70 °FPassing clouds.1 mph78%29.97 "HgN/A
Weather by CustomWeather, © 2014

See weather overviewHow to use our weather pages